I0ABU Sezze IT current weather conditions

sailwx.info

Wind from 030

Air temperature 19.4° C
Dewpoint 13.6° C

Last reported at 2020-Aug-06 00:55 UTC.
Time now 2020-Aug-06 01:31 UTC

Location: N 41°30' E 013°04'.
View on Google Maps.

See reports from other nearby stations

  
Tides and Currents Weather Stations Pressure Air Temp Water Temp Dewpoint Dewpoint Depression Visibility Wind Speed Wind Dir Waves Ship Positions
date/time (UTC)wind fromknots sea level pressurealtimeterstation pressurevisibilityair tempwater tempwave heightnotes
2020-Aug-06 01:05 313 19.4
2020-Aug-06 01:00 030 1 gusting 2 19.4
2020-Aug-06 00:55 030 19.4
2020-Aug-06 00:50 030 0 gusting 3 19.4
2020-Aug-06 00:45 030 2 gusting 2 20.0
2020-Aug-06 00:40 009 2 gusting 4 20.6
2020-Aug-06 00:36 215 3 gusting 7 20.0
2020-Aug-06 00:30 269 1 gusting 3 19.4
2020-Aug-06 00:25 346 2 gusting 2 19.4
2020-Aug-06 00:20 346 0 gusting 4 18.9
2020-Aug-06 00:15 022 1 gusting 6 18.9
2020-Aug-06 00:10 022 3 gusting 3 18.9
2020-Aug-06 00:05 022 3 gusting 3 18.9
2020-Aug-06 00:00 022 1 gusting 4 18.9
2020-Aug-05 23:55 022 1 gusting 2 18.9
2020-Aug-05 23:50 022 1 gusting 2 18.9
2020-Aug-05 23:45 022 2 gusting 4 18.9
2020-Aug-05 23:40 019 2 gusting 3 18.9
2020-Aug-05 23:35 022 2 gusting 4 18.3
2020-Aug-05 23:30 016 2 gusting 2 18.3
2020-Aug-05 23:25 016 1 gusting 1 18.3
2020-Aug-05 23:20 016 1 gusting 2 18.9
2020-Aug-05 23:15 016 1 gusting 2 18.9
2020-Aug-05 23:10 016 1 gusting 1 18.9
2020-Aug-05 23:05 016 1 gusting 1 18.9
2020-Aug-05 23:00 016 18.9
2020-Aug-05 22:55 016 1 gusting 4 18.9
2020-Aug-05 22:50 005 2 gusting 4 18.9
2020-Aug-05 22:45 104 18.9
2020-Aug-05 22:40 048 0 gusting 3 18.9
2020-Aug-05 22:36 049 3 gusting 5 18.9
2020-Aug-05 22:30 031 18.9
2020-Aug-05 22:25 031 1 gusting 4 18.9
2020-Aug-05 22:20 041 2 gusting 6 18.9
2020-Aug-05 22:15 040 5 gusting 6 18.9
2020-Aug-05 22:10 034 3 gusting 6 18.9
2020-Aug-05 22:05 045 3 gusting 7 18.9
2020-Aug-05 22:00 024 4 gusting 6 18.9
2020-Aug-05 21:55 024 5 gusting 6 18.9
2020-Aug-05 21:50 028 3 gusting 6 18.9
2020-Aug-05 21:46 019 6 gusting 7 18.9
2020-Aug-05 21:41 030 2 gusting 3 18.9
2020-Aug-05 21:35 030 1 gusting 3 18.9
2020-Aug-05 21:30 030 2 gusting 4 18.9
2020-Aug-05 21:25 022 4 gusting 5 18.9
2020-Aug-05 21:20 021 3 gusting 6 18.9
2020-Aug-05 21:15 022 5 gusting 6 18.9
2020-Aug-05 21:10 042 3 gusting 6 18.9
2020-Aug-05 21:05 038 3 gusting 6 18.3
2020-Aug-05 21:01 024 4 gusting 4 18.3
2020-Aug-05 20:55 043 2 gusting 4 18.3
2020-Aug-05 20:50 043 3 gusting 4 18.3
2020-Aug-05 20:45 042 4 gusting 6 18.3
2020-Aug-05 20:40 029 5 gusting 7 18.9
2020-Aug-05 20:35 017 4 gusting 6 18.9
2020-Aug-05 20:30 028 2 gusting 4 18.9
2020-Aug-05 20:25 035 2 gusting 3 18.9
2020-Aug-05 20:20 024 2 gusting 3 18.9
2020-Aug-05 20:15 022 2 gusting 5 18.9
2020-Aug-05 20:10 042 3 gusting 4 18.9
2020-Aug-05 20:05 025 3 gusting 4 18.9
2020-Aug-05 20:00 029 4 gusting 5 18.9
2020-Aug-05 19:55 023 4 gusting 4 18.9
2020-Aug-05 19:50 017 4 gusting 4 18.9
2020-Aug-05 19:45 016 3 gusting 4 18.9
2020-Aug-05 19:40 013 3 gusting 6 18.9
2020-Aug-05 19:35 030 2 gusting 4 18.9
2020-Aug-05 19:30 031 2 gusting 6 18.9
2020-Aug-05 19:25 019 4 gusting 6 19.4
2020-Aug-05 19:20 022 3 gusting 6 19.4
2020-Aug-05 19:15 021 4 gusting 6 19.4
2020-Aug-05 19:10 017 2 gusting 3 19.4
2020-Aug-05 19:05 017 2 gusting 3 19.4
2020-Aug-05 19:00 017 1 gusting 4 19.4
2020-Aug-05 18:55 036 1 gusting 4 20.0
2020-Aug-05 18:50 028 4 gusting 4 20.0
2020-Aug-05 18:45 049 3 gusting 3 20.6
2020-Aug-05 18:40 010 2 gusting 3 20.6
2020-Aug-05 18:36 010 0 gusting 3 20.6
2020-Aug-05 18:30 005 2 gusting 3 20.6
2020-Aug-05 18:25 017 2 gusting 4 20.6
2020-Aug-05 18:20 355 1 gusting 2 21.1
2020-Aug-05 18:15 355 0 gusting 1 21.1
2020-Aug-05 18:10 355 0 gusting 3 21.1
2020-Aug-05 18:05 355 1 gusting 2 21.7
2020-Aug-05 18:00 355 1 gusting 3 21.7
2020-Aug-05 17:55 355 2 gusting 3 21.7
2020-Aug-05 17:50 351 1 gusting 3 22.2
2020-Aug-05 17:45 340 2 gusting 3 22.2
2020-Aug-05 17:40 318 0 gusting 2 22.2
2020-Aug-05 17:35 310 1 gusting 3 22.2
2020-Aug-05 17:30 355 1 gusting 4 22.2
2020-Aug-05 17:25 323 1 gusting 3 22.2
2020-Aug-05 17:20 024 0 gusting 4 21.7
2020-Aug-05 17:15 011 2 gusting 2 21.7
2020-Aug-05 17:10 343 1 gusting 1 21.7
2020-Aug-05 17:05 342 0 gusting 2 21.7
2020-Aug-05 17:00 342 21.7
2020-Aug-05 16:55 342 21.7
2020-Aug-05 16:50 258 0 gusting 2 21.7
2020-Aug-05 16:45 258 0 gusting 3 21.1
2020-Aug-05 16:40 258 1 gusting 3 21.1
2020-Aug-05 16:35 279 2 gusting 6 21.1
2020-Aug-05 16:30 263 0 gusting 2 20.6
2020-Aug-05 16:25 263 2 gusting 5 20.6
2020-Aug-05 16:20 194 1 gusting 2 20.0
2020-Aug-05 16:15 194 0 gusting 4 20.0
2020-Aug-05 16:10 194 2 gusting 3 20.0
2020-Aug-05 16:05 196 1 gusting 5 20.6
2020-Aug-05 16:00 201 5 gusting 6 20.6
2020-Aug-05 15:55 194 3 gusting 6 21.1
2020-Aug-05 15:50 223 1 gusting 5 21.7
2020-Aug-05 15:45 237 3 gusting 4 21.7
2020-Aug-05 15:40 251 2 gusting 2 21.7
2020-Aug-05 15:35 251 0 gusting 6 21.7
2020-Aug-05 15:30 275 3 gusting 6 21.7
2020-Aug-05 15:25 286 2 gusting 6 21.7
2020-Aug-05 15:20 261 3 gusting 6 21.7
2020-Aug-05 15:15 290 3 gusting 5 21.7
2020-Aug-05 15:10 178 21.1
2020-Aug-05 15:05 178 1 gusting 3 21.1
2020-Aug-05 15:00 167 3 gusting 4 21.1
2020-Aug-05 14:55 136 2 gusting 5 21.1
2020-Aug-05 14:50 173 5 gusting 7 21.1
2020-Aug-05 14:45 208 4 gusting 5 21.7
2020-Aug-05 14:40 218 4 gusting 5 21.7
2020-Aug-05 14:35 174 0 gusting 5 21.7
2020-Aug-05 14:30 186 2 gusting 7 21.7
2020-Aug-05 14:25 210 3 gusting 7 22.2
2020-Aug-05 14:20 180 6 gusting 12 22.8
2020-Aug-05 14:15 164 4 gusting 11 22.8
2020-Aug-05 14:10 153 6 gusting 8 23.3
2020-Aug-05 14:05 135 1 gusting 8 23.3
2020-Aug-05 14:00 129 2 gusting 5 23.3
2020-Aug-05 13:55 100 5 gusting 6 23.9
2020-Aug-05 13:50 287 1 gusting 2 23.3
2020-Aug-05 13:45 285 1 gusting 5 22.8
2020-Aug-05 13:40 325 0 gusting 4 22.2
2020-Aug-05 13:35 259 2 gusting 4 21.7
2020-Aug-05 13:30 242 2 gusting 3 21.1
2020-Aug-05 13:25 176 0 gusting 5 21.1
2020-Aug-05 13:20 171 3 gusting 6 21.1
2020-Aug-05 13:15 222 1 gusting 5 21.1
2020-Aug-05 13:10 223 2 gusting 6 21.7
2020-Aug-05 13:05 213 3 gusting 4 21.7
2020-Aug-05 13:00 213 0 gusting 5 21.1
2020-Aug-05 12:55 144 0 gusting 4 21.1
2020-Aug-05 12:50 175 1 gusting 2 20.6
2020-Aug-05 12:45 175 1 gusting 3 20.6
2020-Aug-05 12:40 175 1 gusting 5 20.6
2020-Aug-05 12:35 204 2 gusting 6 21.1
2020-Aug-05 12:30 167 0 gusting 5 21.1
2020-Aug-05 12:25 167 2 gusting 4 21.1
2020-Aug-05 12:20 190 4 gusting 10 21.7
2020-Aug-05 12:15 198 3 gusting 10 22.2
2020-Aug-05 12:10 175 5 gusting 8 21.7
2020-Aug-05 12:05 202 6 gusting 10 21.7
2020-Aug-05 12:00 182 5 gusting 9 21.7
2020-Aug-05 11:55 234 4 gusting 6 21.7
2020-Aug-05 11:50 246 0 gusting 8 21.7
2020-Aug-05 11:45 242 2 gusting 7 21.7
2020-Aug-05 11:40 237 1 gusting 9 21.7
2020-Aug-05 11:35 231 6 gusting 7 22.2
2020-Aug-05 11:30 194 6 gusting 6 22.8
2020-Aug-05 11:25 223 4 gusting 6 23.3
2020-Aug-05 11:21 188 4 gusting 5 23.3
2020-Aug-05 11:15 179 5 gusting 6 23.3
2020-Aug-05 11:10 159 5 gusting 6 23.3
2020-Aug-05 11:06 182 4 gusting 7 23.3
2020-Aug-05 11:00 206 3 gusting 4 23.3
2020-Aug-05 10:55 170 3 gusting 4 23.3
2020-Aug-05 10:50 215 1 gusting 3 23.3
2020-Aug-05 10:45 178 2 gusting 6 23.3
2020-Aug-05 10:40 205 5 gusting 6 23.3
2020-Aug-05 10:35 191 4 gusting 7 23.3
2020-Aug-05 10:30 185 5 gusting 9 23.3
2020-Aug-05 10:25 188 4 gusting 6 23.3
2020-Aug-05 10:20 196 3 gusting 10 23.3
2020-Aug-05 10:15 251 2 gusting 7 23.3
2020-Aug-05 10:10 186 1 gusting 9 23.3
2020-Aug-05 10:05 208 6 gusting 7 23.3
2020-Aug-05 10:00 205 3 gusting 6 23.3
2020-Aug-05 09:55 130 1 gusting 14 23.3
2020-Aug-05 09:50 287 2 gusting 7 23.3
2020-Aug-05 09:45 191 22.8
2020-Aug-05 09:40 175 5 gusting 7 22.8
2020-Aug-05 09:35 194 4 gusting 4 22.8
2020-Aug-05 09:30 194 3 gusting 4 22.8
2020-Aug-05 09:25 157 1 gusting 6 22.8
2020-Aug-05 09:20 221 3 gusting 4 22.8
2020-Aug-05 09:15 087 0 gusting 5 22.8
2020-Aug-05 09:10 207 2 gusting 5 22.8
2020-Aug-05 09:05 204 0 gusting 6 22.8
2020-Aug-05 09:00 190 1 gusting 6 22.8
2020-Aug-05 08:55 188 1 gusting 5 22.8
2020-Aug-05 08:50 177 3 gusting 8 22.2
2020-Aug-05 08:45 172 7 gusting 7 22.2
2020-Aug-05 08:40 169 4 gusting 6 22.2
2020-Aug-05 08:35 206 3 gusting 6 22.2
2020-Aug-05 08:30 172 1 gusting 6 21.7
2020-Aug-05 08:25 188 4 gusting 6 21.7
2020-Aug-05 08:20 171 3 gusting 7 21.7
2020-Aug-05 08:15 188 2 gusting 7 22.2
2020-Aug-05 08:10 157 5 gusting 7 22.2
2020-Aug-05 08:05 215 3 gusting 8 22.2
2020-Aug-05 08:00 140 3 gusting 6 22.2
2020-Aug-05 07:55 184 3 gusting 6 22.2
2020-Aug-05 07:50 155 2 gusting 6 22.2
2020-Aug-05 07:45 170 1 gusting 9 21.7
2020-Aug-05 07:40 147 2 gusting 6 21.7
2020-Aug-05 07:35 125 3 gusting 8 21.7
2020-Aug-05 07:30 155 6 gusting 7 21.7
2020-Aug-05 07:25 150 2 gusting 7 21.7
2020-Aug-05 07:20 169 6 gusting 7 21.7
2020-Aug-05 07:15 158 4 gusting 8 21.7
2020-Aug-05 07:10 097 2 gusting 6 21.1
2020-Aug-05 07:05 178 5 gusting 9 21.1
2020-Aug-05 07:00 215 3 gusting 4 21.7
2020-Aug-05 06:55 196 2 gusting 5 21.7
2020-Aug-05 06:50 051 0 gusting 2 22.2
2020-Aug-05 06:45 051 0 gusting 4 22.2
2020-Aug-05 06:40 005 2 gusting 4 22.2
2020-Aug-05 06:35 015 3 gusting 3 21.7
2020-Aug-05 06:30 21.7
2020-Aug-05 06:25 021 1 gusting 3 21.1
2020-Aug-05 06:20 021 2 gusting 4 21.1
2020-Aug-05 06:15 022 1 gusting 3 21.1
2020-Aug-05 06:10 022 2 gusting 6 21.1
2020-Aug-05 06:05 021 0 gusting 4 20.6
2020-Aug-05 06:00 005 2 gusting 3 20.0
2020-Aug-05 05:55 342 2 gusting 4 19.4
2020-Aug-05 05:50 015 2 gusting 6 19.4
2020-Aug-05 05:45 355 3 gusting 6 18.9
2020-Aug-05 05:40 18.9
2020-Aug-05 05:35 005 3 gusting 4 18.9
2020-Aug-05 05:30 005 3 gusting 4 18.9
2020-Aug-05 05:25 033 2 gusting 3 18.9
2020-Aug-05 05:20 031 1 gusting 3 18.3
2020-Aug-05 05:15 031 2 gusting 3 18.3
2020-Aug-05 05:10 031 2 gusting 3 18.3
2020-Aug-05 05:05 031 2 gusting 4 17.8
2020-Aug-05 05:00 031 2 gusting 3 17.8
2020-Aug-05 04:55 030 1 gusting 3 17.8
2020-Aug-05 04:50 030 3 gusting 6 17.8
2020-Aug-05 04:45 020 6 gusting 6 17.8
2020-Aug-05 04:40 021 4 gusting 4 17.8
2020-Aug-05 04:35 041 1 gusting 4 17.8
2020-Aug-05 04:30 005 3 gusting 6 18.3
2020-Aug-05 04:25 032 3 gusting 4 18.3
2020-Aug-05 04:20 036 1 gusting 4 18.3
2020-Aug-05 04:15 051 2 gusting 5 18.3
2020-Aug-05 04:10 051 3 gusting 4 18.3
2020-Aug-05 04:05 047 2 gusting 4 17.8
2020-Aug-05 04:00 044 2 gusting 4 17.8
2020-Aug-05 03:55 041 2 gusting 5 17.8
2020-Aug-05 03:50 020 3 gusting 5 17.8
2020-Aug-05 03:45 040 2 gusting 5 17.8
2020-Aug-05 03:40 040 2 gusting 6 17.8
2020-Aug-05 03:35 015 4 gusting 5 17.8
2020-Aug-05 03:30 030 4 gusting 6 17.8
2020-Aug-05 03:25 053 2 gusting 5 17.8
2020-Aug-05 03:20 010 6 gusting 7 18.3
2020-Aug-05 03:15 030 4 gusting 6 18.3
2020-Aug-05 03:10 026 2 gusting 6 18.9
2020-Aug-05 03:05 017 1 gusting 2 18.9
2020-Aug-05 03:00 017 0 gusting 1 18.9
2020-Aug-05 02:55 017 19.4
2020-Aug-05 02:50 017 19.4
2020-Aug-05 02:45 017 19.4
2020-Aug-05 02:40 017 1 gusting 1 19.4
2020-Aug-05 02:35 017 19.4
2020-Aug-05 02:30 017 1 gusting 3 19.4
2020-Aug-05 02:25 329 1 gusting 2 19.4
2020-Aug-05 02:20 329 0 gusting 3 18.9
2020-Aug-05 02:15 303 0 gusting 2 18.9
2020-Aug-05 02:10 300 0 gusting 2 18.9
2020-Aug-05 02:05 300 18.9
2020-Aug-05 02:00 300 18.9
2020-Aug-05 01:55 300 18.9
2020-Aug-05 01:50 349 18.9
2020-Aug-05 01:45 349 0 gusting 6 18.9
2020-Aug-05 01:40 349 0 gusting 6 18.9
2020-Aug-05 01:35 038 0 gusting 2 18.9
2020-Aug-05 01:30 038 18.3
2020-Aug-05 01:25 038 18.3
2020-Aug-05 01:20 038 0 gusting 2 18.3
2020-Aug-05 01:15 038 1 gusting 2 17.8
2020-Aug-05 01:10 038 0 gusting 2 17.8
2020-Aug-05 01:05 038 0 gusting 2 17.8
2020-Aug-05 01:00 038 1 gusting 3 17.8
2020-Aug-05 00:55 038 1 gusting 3 17.8
2020-Aug-05 00:50 039 1 gusting 2 17.8
2020-Aug-05 00:45 039 1 gusting 3 17.8
2020-Aug-05 00:40 026 2 gusting 3 18.3
2020-Aug-05 00:35 026 0 gusting 2 18.3
2020-Aug-05 00:30 026 1 gusting 4 18.3
2020-Aug-05 00:25 026 4 gusting 6 17.8
2020-Aug-05 00:20 026 4 gusting 6 17.8
2020-Aug-05 00:15 023 6 gusting 6 17.8
2020-Aug-05 00:10 017 4 gusting 6 18.3
2020-Aug-05 00:05 017 6 gusting 6 18.3
2020-Aug-05 00:00 023 3 gusting 6 18.3
2020-Aug-04 23:55 026 5 gusting 6 18.9
2020-Aug-04 23:50 028 3 gusting 4 18.9
2020-Aug-04 23:45 028 3 gusting 4 18.9
2020-Aug-04 23:40 028 3 gusting 4 18.9
2020-Aug-04 23:35 028 2 gusting 4 18.3
2020-Aug-04 23:30 024 4 gusting 4 18.3
2020-Aug-04 23:25 024 3 gusting 4 18.3
2020-Aug-04 23:20 055 2 gusting 3 18.3
2020-Aug-04 23:16 055 1 gusting 4 18.3
2020-Aug-04 23:10 056 1 gusting 5 18.3
2020-Aug-04 23:05 029 2 gusting 4 18.3
2020-Aug-04 23:00 026 3 gusting 6 18.3
2020-Aug-04 22:55 020 3 gusting 6 18.3
2020-Aug-04 22:50 039 4 gusting 6 18.3
2020-Aug-04 22:45 032 3 gusting 4 18.3
2020-Aug-04 22:40 051 2 gusting 7 18.9
2020-Aug-04 22:35 023 3 gusting 6 18.9
2020-Aug-04 22:30 024 4 gusting 7 18.9
2020-Aug-04 22:25 035 4 gusting 6 18.9
2020-Aug-04 22:20 025 4 gusting 6 18.9
2020-Aug-04 22:15 027 4 gusting 5 18.9
2020-Aug-04 22:10 026 4 gusting 6 18.9
2020-Aug-04 22:05 024 3 gusting 6 18.9
2020-Aug-04 22:00 015 3 gusting 6 18.9
2020-Aug-04 21:55 021 6 gusting 6 18.9
2020-Aug-04 21:50 039 2 gusting 4 19.4
2020-Aug-04 21:45 038 0 gusting 3 19.4
2020-Aug-04 21:40 038 2 gusting 2 19.4
2020-Aug-04 21:35 038 0 gusting 1 19.4
2020-Aug-04 21:30 038 1 gusting 2 19.4
2020-Aug-04 21:25 038 1 gusting 2 20.0
2020-Aug-04 21:20 038 1 gusting 2 20.0
2020-Aug-04 21:15 038 20.0
2020-Aug-04 21:10 038 20.0
2020-Aug-04 21:05 038 20.0
2020-Aug-04 21:00 038 20.0
2020-Aug-04 20:55 038 20.0
2020-Aug-04 20:50 038 0 gusting 2 19.4
2020-Aug-04 20:45 038 0 gusting 2 19.4
2020-Aug-04 20:40 038 1 gusting 3 19.4
2020-Aug-04 20:35 038 2 gusting 4 19.4
2020-Aug-04 20:30 031 2 gusting 4 19.4
2020-Aug-04 20:25 031 1 gusting 3 18.9
2020-Aug-04 20:20 031 0 gusting 3 18.9
2020-Aug-04 20:15 031 3 gusting 4 18.9
2020-Aug-04 20:10 005 2 gusting 4 18.9
2020-Aug-04 20:05 022 3 gusting 7 18.9
2020-Aug-04 20:00 19.4
2020-Aug-04 19:55 005 2 gusting 6 19.4
2020-Aug-04 19:50 028 2 gusting 6 19.4
2020-Aug-04 19:45 005 3 gusting 5 20.0
2020-Aug-04 19:40 346 3 gusting 6 20.0
2020-Aug-04 19:35 011 2 gusting 3 20.0
2020-Aug-04 19:30 010 1 gusting 6 20.6
2020-Aug-04 19:25 331 3 gusting 6 21.1
2020-Aug-04 19:20 263 0 gusting 5 21.1
2020-Aug-04 19:15 282 3 gusting 4 21.1
2020-Aug-04 19:10 250 20.6
2020-Aug-04 19:05 184 0 gusting 5 20.6
2020-Aug-04 19:00 159 3 gusting 6 20.6
2020-Aug-04 18:55 171 3 gusting 5 21.1
2020-Aug-04 18:50 162 1 gusting 5 21.1
2020-Aug-04 18:45 150 21.1
2020-Aug-04 18:40 175 6 gusting 7 21.1
2020-Aug-04 18:35 146 4 gusting 6 21.1
2020-Aug-04 18:30 171 6 gusting 6 21.1
2020-Aug-04 18:25 163 1 gusting 6 21.1
2020-Aug-04 18:20 087 2 gusting 6 21.1
2020-Aug-04 18:15 147 2 gusting 7 21.1
2020-Aug-04 18:10 151 2 gusting 7 21.1
2020-Aug-04 18:05 174 2 gusting 7 21.1
2020-Aug-04 18:00 194 2 gusting 8 21.7
2020-Aug-04 17:55 193 6 gusting 9 21.7
2020-Aug-04 17:50 205 3 gusting 9 21.7
2020-Aug-04 17:45 205 6 gusting 9 21.7
2020-Aug-04 17:40 204 7 gusting 9 21.7
2020-Aug-04 17:35 208 6 gusting 10 21.7
2020-Aug-04 17:30 194 8 gusting 13 21.7
2020-Aug-04 17:25 190 6 gusting 12 21.7
2020-Aug-04 17:20 167 7 gusting 13 21.7
2020-Aug-04 17:15 192 9 gusting 13 21.7
2020-Aug-04 17:10 209 12 gusting 15 21.7
2020-Aug-04 17:05 200 3 gusting 13 22.2
2020-Aug-04 17:00 138 7 gusting 12 22.2
2020-Aug-04 16:55 199 8 gusting 13 22.2
2020-Aug-04 16:50 188 11 gusting 13 22.2
2020-Aug-04 16:45 209 8 gusting 12 22.8
2020-Aug-04 16:40 196 7 gusting 14 22.8
2020-Aug-04 16:35 181 12 gusting 13 22.2
2020-Aug-04 16:30 190 9 gusting 13 22.2
2020-Aug-04 16:25 161 6 gusting 13 22.8
2020-Aug-04 16:20 191 11 gusting 12 23.3
2020-Aug-04 16:15 173 8 gusting 15 23.3
2020-Aug-04 16:10 196 9 gusting 15 22.8
2020-Aug-04 16:05 184 4 gusting 10 22.8
2020-Aug-04 16:00 176 11 gusting 13 23.3
2020-Aug-04 15:55 217 4 gusting 14 22.8
2020-Aug-04 15:50 200 7 gusting 16 22.8
2020-Aug-04 15:45 200 10 gusting 15 22.8
2020-Aug-04 15:40 201 7 gusting 18 22.8
2020-Aug-04 15:35 194 11 gusting 17 22.8
2020-Aug-04 15:30 192 8 gusting 18 23.3
2020-Aug-04 15:25 227 13 gusting 17 23.3
2020-Aug-04 15:20 195 11 gusting 19 22.8
2020-Aug-04 15:15 215 6 gusting 18 23.3
2020-Aug-04 15:10 215 13 gusting 18 23.3
2020-Aug-04 15:05 123 10 gusting 19 23.9
2020-Aug-04 15:01 171 5 gusting 15 23.3
2020-Aug-04 14:55 202 14 gusting 17 23.9
2020-Aug-04 14:50 184 8 gusting 15 23.3
2020-Aug-04 14:45 128 10 gusting 17 22.8
2020-Aug-04 14:40 192 12 gusting 18 22.8
2020-Aug-04 14:35 184 11 gusting 18 23.3
2020-Aug-04 14:30 164 10 gusting 22 22.8
2020-Aug-04 14:25 175 12 gusting 19 22.8
2020-Aug-04 14:20 208 13 gusting 19 22.8
2020-Aug-04 14:15 172 7 gusting 20 22.8
2020-Aug-04 14:10 205 15 gusting 19 22.8
2020-Aug-04 14:05 192 18 gusting 21 22.8
2020-Aug-04 14:00 209 16 gusting 20 23.3
2020-Aug-04 13:55 233 6 gusting 21 23.3
2020-Aug-04 13:50 173 13 gusting 19 23.9
2020-Aug-04 13:45 182 8 gusting 19 23.3
2020-Aug-04 13:40 215 11 gusting 19 22.8
2020-Aug-04 13:35 177 13 gusting 20 22.8
2020-Aug-04 13:30 198 11 gusting 18 23.3
2020-Aug-04 13:25 214 11 gusting 20 23.3
2020-Aug-04 13:20 205 11 gusting 18 23.9
2020-Aug-04 13:15 190 6 gusting 19 23.3
2020-Aug-04 13:10 200 4 gusting 19 23.3
2020-Aug-04 13:05 215 8 gusting 18 22.8
2020-Aug-04 13:00 200 8 gusting 19 23.3
2020-Aug-04 12:55 202 13 gusting 22 23.3
2020-Aug-04 12:50 248 2 gusting 18 23.3
2020-Aug-04 12:45 188 10 gusting 22 23.3
2020-Aug-04 12:40 181 8 gusting 22 23.3
2020-Aug-04 12:35 201 17 gusting 19 23.3
2020-Aug-04 12:30 174 19 gusting 19 23.3
2020-Aug-04 12:25 186 10 gusting 23 23.3
2020-Aug-04 12:20 192 8 gusting 23 22.8
2020-Aug-04 12:15 207 16 gusting 19 23.3
2020-Aug-04 12:10 181 13 gusting 22 23.3
2020-Aug-04 12:05 182 13 gusting 19 23.3
2020-Aug-04 12:00 230 12 gusting 20 23.3
2020-Aug-04 11:55 159 5 gusting 21 23.9
2020-Aug-04 11:50 189 6 gusting 22 23.9
2020-Aug-04 11:45 215 10 gusting 22 23.3
2020-Aug-04 11:40 198 8 gusting 19 23.3
2020-Aug-04 11:35 202 13 gusting 22 23.9
2020-Aug-04 11:30 176 9 gusting 18 23.9
2020-Aug-04 11:25 163 13 gusting 19 23.3
2020-Aug-04 11:20 189 10 gusting 18 23.9
2020-Aug-04 11:15 233 12 gusting 20 23.3
2020-Aug-04 11:10 196 11 gusting 21 23.3
2020-Aug-04 11:05 229 5 gusting 19 23.3
2020-Aug-04 11:00 209 12 gusting 17 23.3
2020-Aug-04 10:55 155 10 gusting 17 23.3
2020-Aug-04 10:50 192 10 gusting 19 23.3
2020-Aug-04 10:45 138 4 gusting 20 23.3
2020-Aug-04 10:40 163 14 gusting 19 22.8
2020-Aug-04 10:35 171 11 gusting 19 23.3
2020-Aug-04 10:30 198 7 gusting 17 23.9
2020-Aug-04 10:25 197 11 gusting 23 23.9
2020-Aug-04 10:20 161 12 gusting 19 23.9
2020-Aug-04 10:15 246 4 gusting 17 23.9
2020-Aug-04 10:10 194 8 gusting 17 22.8
2020-Aug-04 10:05 190 10 gusting 13 23.3
2020-Aug-04 10:00 207 9 gusting 22 23.3
2020-Aug-04 09:55 164 14 gusting 19 23.3
2020-Aug-04 09:50 192 13 gusting 21 23.3
2020-Aug-04 09:45 177 15 gusting 20 23.3
2020-Aug-04 09:40 156 4 gusting 18 23.3
2020-Aug-04 09:35 165 18 gusting 20 23.3
2020-Aug-04 09:30 273 7 gusting 18 23.3
2020-Aug-04 09:25 213 12 gusting 19 23.9
2020-Aug-04 09:20 163 6 gusting 18 23.9
2020-Aug-04 09:15 198 6 gusting 13 23.9
2020-Aug-04 09:10 183 9 gusting 17 23.3
2020-Aug-04 09:05 190 9 gusting 19 23.9
2020-Aug-04 09:00 178 13 gusting 18 23.3
2020-Aug-04 08:55 181 14 gusting 17 23.9
2020-Aug-04 08:50 177 11 gusting 15 23.9
2020-Aug-04 08:45 167 9 gusting 15 23.9
2020-Aug-04 08:40 206 13 gusting 15 23.3
2020-Aug-04 08:35 198 12 gusting 19 23.3
2020-Aug-04 08:30 200 13 gusting 20 23.3
2020-Aug-04 08:25 156 8 gusting 14 23.3
2020-Aug-04 08:20 231 3 gusting 14 23.3
2020-Aug-04 08:15 170 9 gusting 17 23.3
2020-Aug-04 08:10 176 11 gusting 14 23.3
2020-Aug-04 08:05 184 9 gusting 17 23.3
2020-Aug-04 08:00 190 12 gusting 15 23.9
2020-Aug-04 07:55 189 7 gusting 13 23.3
2020-Aug-04 07:50 185 8 gusting 20 23.3
2020-Aug-04 07:45 229 3 gusting 12 23.3
2020-Aug-04 07:40 208 9 gusting 12 22.8
2020-Aug-04 07:35 193 10 gusting 15 22.8
2020-Aug-04 07:30 202 5 gusting 14 22.8
2020-Aug-04 07:25 209 6 gusting 10 22.8
2020-Aug-04 07:20 219 6 gusting 10 22.8
2020-Aug-04 07:15 179 6 gusting 7 22.8
2020-Aug-04 07:10 202 5 gusting 7 22.8
2020-Aug-04 07:05 220 3 gusting 6 23.3
2020-Aug-04 07:00 185 2 gusting 6 22.8
2020-Aug-04 06:55 196 1 gusting 6 22.8
2020-Aug-04 06:50 172 5 gusting 6 22.8
2020-Aug-04 06:45 185 5 gusting 6 22.8
2020-Aug-04 06:40 182 2 gusting 6 22.8
2020-Aug-04 06:35 177 4 gusting 7 22.2
2020-Aug-04 06:30 169 1 gusting 5 22.2
2020-Aug-04 06:25 165 3 gusting 6 22.2
2020-Aug-04 06:20 169 6 gusting 7 22.2
2020-Aug-04 06:16 169 3 gusting 3 22.2
2020-Aug-04 06:10 169 1 gusting 4 22.2
2020-Aug-04 06:05 169 1 gusting 3 22.2
2020-Aug-04 06:00 169 1 gusting 4 22.2
2020-Aug-04 05:55 196 3 gusting 3 22.2
2020-Aug-04 05:50 221 2 gusting 5 22.2
2020-Aug-04 05:45 196 3 gusting 5 22.2
2020-Aug-04 05:40 178 2 gusting 4 22.2
2020-Aug-04 05:35 190 2 gusting 3 22.2
2020-Aug-04 05:30 202 1 gusting 3 22.2
2020-Aug-04 05:25 217 2 gusting 3 22.2
2020-Aug-04 05:20 217 0 gusting 3 22.2
2020-Aug-04 05:15 273 2 gusting 6 22.2
2020-Aug-04 05:10 285 0 gusting 2 22.2
2020-Aug-04 05:05 286 0 gusting 2 22.2
2020-Aug-04 05:00 286 22.2
2020-Aug-04 04:55 286 22.2
2020-Aug-04 04:50 286 21.7
2020-Aug-04 04:45 286 21.7
2020-Aug-04 04:40 286 22.2
2020-Aug-04 04:35 286 0 gusting 2 22.2
2020-Aug-04 04:30 286 22.2
2020-Aug-04 04:25 286 1 gusting 5 22.2
2020-Aug-04 04:20 273 1 gusting 3 22.2
2020-Aug-04 04:15 259 1 gusting 1 22.2
2020-Aug-04 04:10 259 0 gusting 2 21.7
2020-Aug-04 04:05 263 21.7
2020-Aug-04 04:00 264 2 gusting 2 21.7
2020-Aug-04 03:55 263 21.7
2020-Aug-04 03:50 263 0 gusting 1 22.2
2020-Aug-04 03:45 263 22.2
2020-Aug-04 03:40 263 1 gusting 3 22.2
2020-Aug-04 03:35 274 2 gusting 5 21.7
2020-Aug-04 03:30 259 0 gusting 2 21.7
2020-Aug-04 03:25 252 0 gusting 2 21.7
2020-Aug-04 03:20 314 0 gusting 2 21.1
2020-Aug-04 03:15 314 0 gusting 1 21.1
2020-Aug-04 03:10 314 21.1
2020-Aug-04 03:05 314 21.1
2020-Aug-04 03:00 314 21.7
2020-Aug-04 02:55 314 0 gusting 1 21.7
2020-Aug-04 02:50 314 21.7
2020-Aug-04 02:45 314 22.2
2020-Aug-04 02:40 314 0 gusting 2 22.2
2020-Aug-04 02:35 314 1 gusting 3 22.2
2020-Aug-04 02:30 249 22.2
2020-Aug-04 02:25 249 22.8
2020-Aug-04 02:20 249 0 gusting 2 22.8
2020-Aug-04 02:15 267 0 gusting 2 22.8
2020-Aug-04 02:10 267 0 gusting 1 22.8
2020-Aug-04 02:05 267 1 gusting 5 22.8
2020-Aug-04 02:00 263 1 gusting 3 22.8
2020-Aug-04 01:55 252 1 gusting 4 22.8
2020-Aug-04 01:50 239 1 gusting 3 22.8
2020-Aug-04 01:45 259 1 gusting 6 22.8
2020-Aug-04 01:40 219 2 gusting 5 22.8
2020-Aug-04 01:35 200 3 gusting 7 22.8
2020-Aug-04 01:30 187 2 gusting 6 22.8
2020-Aug-04 01:25 220 1 gusting 3 22.8
2020-Aug-04 01:20 241 3 gusting 7 22.8
2020-Aug-04 01:15 237 0 gusting 6 22.8
2020-Aug-04 01:10 231 1 gusting 7 22.8
2020-Aug-04 01:05 266 1 gusting 5 22.8
2020-Aug-04 01:00 236 2 gusting 6 22.8